JES3833 SBSG-SABE

Flight info

Callsign JES3833
Flight time N/A
Altitude 34000
Route DAKER2A SIKEL UZ21 USIPA/N0457F360 UZ21 VUNOX UZ38 VUKMO/N0451F380 UZ38 UMRUD UN741 GUVON DCT KUKEN DCT
Aircraft A320/M-SDE3FGHIRWY/LB1

Departure

Time N/A
Airport Rio Grande do Norte/São Gonçalo do Amarante–Governador Aluízio Alves International Airport (SBSG)

Arrival

Time 2026-05-03 23:38
Airport Aeroparque Jorge Newbery (SABE)
Time Latitude Longitude Altitude Speed Heading
2026-05-03 20:15 -18.35890 -43.10776 34088 ft 438 kts 221°
2026-05-03 20:15 -18.40728 -43.14628 34084 ft 439 kts 221°
2026-05-03 20:16 -18.45572 -43.18542 34099 ft 439 kts 221°
2026-05-03 20:16 -18.50404 -43.22473 34086 ft 439 kts 221°
2026-05-03 20:17 -18.55230 -43.26395 34091 ft 437 kts 221°
2026-05-03 20:17 -18.60032 -43.30293 34092 ft 436 kts 221°
2026-05-03 20:18 -18.64844 -43.34194 34092 ft 436 kts 221°
2026-05-03 20:18 -18.69685 -43.38044 34093 ft 435 kts 221°
2026-05-03 20:19 -18.74509 -43.41848 34094 ft 435 kts 221°
2026-05-03 20:19 -18.79350 -43.45682 34088 ft 434 kts 221°
2026-05-03 20:20 -18.84175 -43.49531 34087 ft 434 kts 221°
2026-05-03 20:20 -18.88989 -43.53372 34083 ft 434 kts 221°
2026-05-03 20:21 -18.93867 -43.57139 34091 ft 435 kts 220°
2026-05-03 20:21 -18.98779 -43.60870 34088 ft 435 kts 220°
2026-05-03 20:22 -19.03652 -43.64588 34087 ft 436 kts 220°
2026-05-03 20:22 -19.08569 -43.68367 34084 ft 436 kts 220°
2026-05-03 20:23 -19.13470 -43.72147 34096 ft 436 kts 221°
2026-05-03 20:23 -19.18366 -43.75924 34090 ft 435 kts 220°
2026-05-03 20:24 -19.23255 -43.79694 34090 ft 435 kts 221°
2026-05-03 20:24 -19.28141 -43.83461 34077 ft 434 kts 221°
2026-05-03 20:25 -19.33023 -43.87215 34090 ft 434 kts 221°
2026-05-03 20:25 -19.37862 -43.90945 34112 ft 433 kts 221°
2026-05-03 20:26 -19.42720 -43.94708 34118 ft 432 kts 221°
2026-05-03 20:26 -19.47569 -43.98464 34124 ft 432 kts 221°
2026-05-03 20:27 -19.52426 -44.02225 34136 ft 432 kts 221°
2026-05-03 20:27 -19.57268 -44.05972 34148 ft 432 kts 221°
2026-05-03 20:28 -19.62135 -44.09706 34066 ft 431 kts 221°
2026-05-03 20:28 -19.67001 -44.13429 34066 ft 431 kts 221°
2026-05-03 20:29 -19.71869 -44.17159 34067 ft 432 kts 221°
2026-05-03 20:29 -19.76726 -44.20915 34081 ft 431 kts 221°
2026-05-03 20:30 -19.81568 -44.24671 34078 ft 430 kts 221°
2026-05-03 20:30 -19.86405 -44.28426 34079 ft 431 kts 221°
2026-05-03 20:31 -19.91225 -44.32164 34080 ft 431 kts 221°
2026-05-03 20:31 -19.96053 -44.35905 34087 ft 429 kts 221°
2026-05-03 20:32 -20.00876 -44.39645 34083 ft 429 kts 221°
2026-05-03 20:32 -20.05693 -44.43387 34083 ft 429 kts 221°
2026-05-03 20:33 -20.10483 -44.47099 34079 ft 429 kts 221°
2026-05-03 20:33 -20.15329 -44.50863 34099 ft 428 kts 221°
2026-05-03 20:34 -20.20101 -44.54572 34092 ft 427 kts 221°
2026-05-03 20:34 -20.24902 -44.58305 34102 ft 427 kts 221°
2026-05-03 20:35 -20.29700 -44.62045 34086 ft 427 kts 221°
2026-05-03 20:35 -20.34499 -44.65795 34104 ft 427 kts 221°
2026-05-03 20:36 -20.39295 -44.69541 34107 ft 426 kts 221°
2026-05-03 20:36 -20.44054 -44.73246 34112 ft 425 kts 221°
2026-05-03 20:37 -20.48837 -44.76977 34106 ft 425 kts 221°
2026-05-03 20:37 -20.53604 -44.80706 34119 ft 425 kts 222°
2026-05-03 20:38 -20.58367 -44.84431 34101 ft 425 kts 222°
2026-05-03 20:38 -20.63146 -44.88158 34099 ft 425 kts 222°
2026-05-03 20:39 -20.67877 -44.91858 34097 ft 424 kts 222°
2026-05-03 20:39 -20.72635 -44.95590 34114 ft 424 kts 222°
2026-05-03 20:40 -20.77389 -44.99323 34111 ft 424 kts 222°
2026-05-03 20:40 -20.82137 -45.03064 34109 ft 424 kts 222°
2026-05-03 20:41 -20.86894 -45.06806 34113 ft 424 kts 222°
2026-05-03 20:41 -20.91654 -45.10539 34110 ft 424 kts 222°
2026-05-03 20:42 -20.96410 -45.14282 34105 ft 424 kts 222°
2026-05-03 20:42 -21.01159 -45.18025 34106 ft 423 kts 222°
2026-05-03 20:43 -21.05900 -45.21762 34100 ft 423 kts 222°
2026-05-03 20:43 -21.10641 -45.25519 34096 ft 424 kts 222°
2026-05-03 20:44 -21.15348 -45.29238 34100 ft 423 kts 222°
2026-05-03 20:44 -21.20086 -45.32974 34095 ft 423 kts 222°
2026-05-03 20:45 -21.24832 -45.36724 34098 ft 424 kts 223°
2026-05-03 20:45 -21.29574 -45.40486 34119 ft 424 kts 223°
2026-05-03 20:46 -21.34311 -45.44245 34119 ft 424 kts 223°
2026-05-03 20:46 -21.39055 -45.48002 34121 ft 424 kts 223°
2026-05-03 20:47 -21.43804 -45.51767 34125 ft 423 kts 223°
2026-05-03 20:47 -21.48538 -45.55523 34119 ft 423 kts 223°
2026-05-03 20:48 -21.53273 -45.59276 34130 ft 423 kts 222°
2026-05-03 20:48 -21.57993 -45.62986 34127 ft 423 kts 223°
2026-05-03 20:49 -21.62751 -45.66716 34144 ft 422 kts 222°
2026-05-03 20:49 -21.67489 -45.70431 34147 ft 421 kts 223°
2026-05-03 20:50 -21.72206 -45.74141 34140 ft 419 kts 223°
2026-05-03 20:50 -21.76902 -45.77843 34133 ft 418 kts 223°
2026-05-03 20:51 -21.81591 -45.81546 34140 ft 418 kts 223°
2026-05-03 20:51 -21.86259 -45.85237 34143 ft 418 kts 223°
2026-05-03 20:52 -21.90946 -45.88937 34169 ft 418 kts 223°
2026-05-03 20:52 -21.95603 -45.92617 34161 ft 418 kts 223°
2026-05-03 20:53 -22.00299 -45.96324 34162 ft 418 kts 223°
2026-05-03 20:53 -22.04987 -46.00031 34172 ft 418 kts 223°
2026-05-03 20:54 -22.09667 -46.03740 34168 ft 417 kts 223°
2026-05-03 20:54 -22.16672 -46.09310 34172 ft 417 kts 223°
2026-05-03 20:55 -22.21342 -46.13016 34177 ft 416 kts 223°
2026-05-03 20:55 -22.26009 -46.16719 34185 ft 416 kts 223°
2026-05-03 20:56 -22.30670 -46.20413 34182 ft 417 kts 221°
2026-05-03 20:56 -22.35937 -46.23283 34175 ft 428 kts 211°
2026-05-03 20:57 -22.41407 -46.25848 34180 ft 429 kts 211°
2026-05-03 20:57 -22.46871 -46.28431 34183 ft 429 kts 211°
2026-05-03 20:58 -22.52298 -46.30998 34210 ft 428 kts 211°
2026-05-03 20:58 -22.57756 -46.33586 34201 ft 428 kts 211°
2026-05-03 20:59 -22.63206 -46.36174 34209 ft 428 kts 211°
2026-05-03 20:59 -22.68653 -46.38754 34212 ft 427 kts 211°
2026-05-03 21:00 -22.72290 -46.40482 34210 ft 426 kts 211°
2026-05-03 21:00 -22.79517 -46.43910 34213 ft 426 kts 211°
2026-05-03 21:01 -22.84023 -46.46041 34236 ft 425 kts 212°
2026-05-03 21:01 -22.90301 -46.49032 34243 ft 424 kts 212°
2026-05-03 21:02 -22.94821 -46.51185 34239 ft 423 kts 212°
2026-05-03 21:02 -23.01085 -46.54161 34245 ft 423 kts 212°
2026-05-03 21:03 -23.05562 -46.56293 34241 ft 423 kts 212°
2026-05-03 21:03 -23.10936 -46.58854 34244 ft 419 kts 212°
2026-05-03 21:04 -23.16260 -46.61399 34233 ft 418 kts 212°
2026-05-03 21:04 -23.22443 -46.64366 34250 ft 418 kts 212°
2026-05-03 21:05 -23.26904 -46.66499 34235 ft 418 kts 212°
2026-05-03 21:05 -23.32199 -46.69031 34242 ft 418 kts 212°
2026-05-03 21:06 -23.37527 -46.71590 34260 ft 418 kts 212°
2026-05-03 21:06 -23.42865 -46.74146 34269 ft 420 kts 212°
2026-05-03 21:07 -23.48189 -46.76702 34281 ft 419 kts 213°
2026-05-03 21:07 -23.53522 -46.79277 34275 ft 417 kts 213°
2026-05-03 21:08 -23.58843 -46.81833 34298 ft 419 kts 212°
2026-05-03 21:08 -23.64117 -46.84375 34273 ft 417 kts 213°
2026-05-03 21:09 -23.69416 -46.86919 34302 ft 415 kts 213°
2026-05-03 21:09 -23.74685 -46.89449 34247 ft 414 kts 213°
2026-05-03 21:10 -23.79957 -46.92004 34239 ft 415 kts 213°
2026-05-03 21:10 -23.85245 -46.94554 34254 ft 417 kts 213°
2026-05-03 21:11 -23.90551 -46.97106 34268 ft 416 kts 213°
2026-05-03 21:11 -23.95823 -46.99649 34254 ft 418 kts 213°
2026-05-03 21:12 -24.01126 -47.02239 34272 ft 416 kts 213°
2026-05-03 21:12 -24.06439 -47.04824 34271 ft 421 kts 213°
2026-05-03 21:13 -24.11780 -47.07424 34260 ft 418 kts 213°
2026-05-03 21:13 -24.17073 -47.09974 34266 ft 414 kts 213°
2026-05-03 21:14 -24.22301 -47.12530 34264 ft 413 kts 214°
2026-05-03 21:14 -24.27421 -47.15283 34260 ft 403 kts 221°
2026-05-03 21:15 -24.32145 -47.18536 34241 ft 399 kts 221°
2026-05-03 21:15 -24.36859 -47.21826 34242 ft 403 kts 222°
2026-05-03 21:16 -24.41641 -47.25160 34264 ft 412 kts 221°
2026-05-03 21:16 -24.46377 -47.28432 34217 ft 400 kts 221°
2026-05-03 21:17 -24.51055 -47.31685 34247 ft 398 kts 221°
2026-05-03 21:17 -24.55719 -47.34969 34234 ft 398 kts 222°
2026-05-03 21:18 -24.60380 -47.38201 34224 ft 395 kts 221°
2026-05-03 21:18 -24.65038 -47.41444 34232 ft 397 kts 221°
2026-05-03 21:19 -24.69642 -47.44677 34208 ft 392 kts 222°
2026-05-03 21:19 -24.74258 -47.47903 34200 ft 395 kts 221°
2026-05-03 21:20 -24.78889 -47.51138 34193 ft 395 kts 222°
2026-05-03 21:20 -24.83507 -47.54392 34217 ft 397 kts 222°
2026-05-03 21:21 -24.88170 -47.57645 34223 ft 396 kts 222°
2026-05-03 21:21 -24.92782 -47.60885 34205 ft 392 kts 221°
2026-05-03 21:22 -24.97347 -47.64085 34195 ft 392 kts 222°
2026-05-03 21:22 -25.01946 -47.67320 34207 ft 394 kts 222°
2026-05-03 21:23 -25.06549 -47.70570 34221 ft 390 kts 221°
2026-05-03 21:23 -25.11160 -47.73834 34208 ft 398 kts 222°
2026-05-03 21:24 -25.15838 -47.77116 34266 ft 398 kts 221°
2026-05-03 21:24 -25.20508 -47.80388 34260 ft 399 kts 223°
2026-05-03 21:25 -25.25116 -47.83631 34256 ft 395 kts 222°
2026-05-03 21:25 -25.29732 -47.86916 34240 ft 394 kts 222°
2026-05-03 21:26 -25.34347 -47.90220 34247 ft 397 kts 222°
2026-05-03 21:26 -25.38992 -47.93511 34259 ft 396 kts 222°
2026-05-03 21:27 -25.43643 -47.96795 34257 ft 396 kts 222°
2026-05-03 21:27 -25.48274 -48.00076 34258 ft 393 kts 223°
2026-05-03 21:28 -25.52849 -48.03334 34234 ft 391 kts 223°
2026-05-03 21:28 -25.57350 -48.06536 34222 ft 384 kts 221°
2026-05-03 21:29 -25.61868 -48.09758 34207 ft 388 kts 222°
2026-05-03 21:29 -25.66437 -48.13016 34202 ft 392 kts 222°
2026-05-03 21:30 -25.68727 -48.14650 34208 ft 390 kts 222°
2026-05-03 21:30 -25.75606 -48.19536 34220 ft 392 kts 221°
2026-05-03 21:31 -25.80203 -48.22812 34227 ft 393 kts 222°
2026-05-03 21:31 -25.84736 -48.26039 34202 ft 390 kts 222°
2026-05-03 21:32 -25.87797 -48.28231 34214 ft 393 kts 221°
2026-05-03 21:32 -25.88571 -48.28784 34217 ft 391 kts 222°
2026-05-03 21:34 -26.07828 -48.42588 34263 ft 394 kts 221°
2026-05-03 21:34 -26.12446 -48.45896 34274 ft 393 kts 221°
2026-05-03 21:35 -26.17044 -48.49179 34237 ft 395 kts 221°
2026-05-03 21:35 -26.21656 -48.52490 34235 ft 394 kts 221°
2026-05-03 21:36 -26.26240 -48.55792 34236 ft 392 kts 221°
2026-05-03 21:36 -26.30834 -48.59103 34244 ft 393 kts 221°
2026-05-03 21:37 -26.35428 -48.62413 34268 ft 392 kts 220°
2026-05-03 21:37 -26.39987 -48.65726 34269 ft 393 kts 220°
2026-05-03 21:38 -26.44512 -48.69013 34239 ft 390 kts 220°
2026-05-03 21:38 -26.49073 -48.72306 34220 ft 392 kts 220°
2026-05-03 21:39 -26.53633 -48.75646 34215 ft 393 kts 221°
2026-05-03 21:39 -26.58191 -48.79047 34217 ft 396 kts 221°
2026-05-03 21:40 -26.62782 -48.82451 34244 ft 396 kts 221°
2026-05-03 21:40 -26.67354 -48.85817 34266 ft 396 kts 220°
2026-05-03 21:41 -26.71978 -48.89190 34261 ft 397 kts 220°
2026-05-03 21:41 -26.76601 -48.92552 34256 ft 396 kts 220°
2026-05-03 21:42 -26.81231 -48.95935 34241 ft 397 kts 220°
2026-05-03 21:42 -26.85840 -48.99305 34251 ft 398 kts 220°
2026-05-03 21:43 -26.90448 -49.02678 34249 ft 395 kts 220°
2026-05-03 21:43 -26.95082 -49.06072 34260 ft 400 kts 219°
2026-05-03 21:44 -26.99712 -49.09463 34245 ft 396 kts 220°
2026-05-03 21:44 -27.04295 -49.12848 34236 ft 394 kts 220°
2026-05-03 21:45 -27.08882 -49.16228 34232 ft 392 kts 220°
2026-05-03 21:45 -27.13479 -49.19618 34233 ft 397 kts 220°
2026-05-03 21:46 -27.18062 -49.23009 34247 ft 397 kts 220°
2026-05-03 21:46 -27.22679 -49.26406 34252 ft 397 kts 220°
2026-05-03 21:47 -27.27296 -49.29814 34286 ft 397 kts 219°
2026-05-03 21:47 -27.31911 -49.33223 34278 ft 397 kts 220°
2026-05-03 21:48 -27.36527 -49.36640 34255 ft 397 kts 220°
2026-05-03 21:48 -27.41151 -49.40061 34262 ft 398 kts 220°
2026-05-03 21:49 -27.45747 -49.43468 34262 ft 399 kts 219°
2026-05-03 21:49 -27.50381 -49.46909 34259 ft 399 kts 220°
2026-05-03 21:50 -27.55015 -49.50349 34261 ft 399 kts 220°
2026-05-03 21:50 -27.59655 -49.53798 34276 ft 399 kts 219°
2026-05-03 21:51 -27.64296 -49.57235 34268 ft 399 kts 219°
2026-05-03 21:51 -27.68915 -49.60645 34266 ft 399 kts 219°
2026-05-03 21:52 -27.73552 -49.64091 34261 ft 399 kts 219°
2026-05-03 21:52 -27.78210 -49.67504 34260 ft 399 kts 218°
2026-05-03 21:53 -27.82910 -49.70840 34259 ft 398 kts 218°
2026-05-03 21:53 -27.87606 -49.74156 34249 ft 398 kts 218°
2026-05-03 21:54 -27.92255 -49.77461 34272 ft 398 kts 218°
2026-05-03 21:54 -27.96936 -49.80806 34252 ft 398 kts 218°
2026-05-03 21:55 -28.01618 -49.84158 34256 ft 399 kts 218°
2026-05-03 21:55 -28.06307 -49.87526 34259 ft 399 kts 218°
2026-05-03 21:56 -28.10993 -49.90890 34247 ft 398 kts 218°
2026-05-03 21:56 -28.15677 -49.94249 34244 ft 398 kts 218°
2026-05-03 21:57 -28.20327 -49.97588 34266 ft 398 kts 218°
2026-05-03 21:57 -28.25005 -50.00956 34259 ft 399 kts 218°
2026-05-03 21:58 -28.29694 -50.04333 34249 ft 403 kts 217°
2026-05-03 21:58 -28.34420 -50.07738 34239 ft 400 kts 218°
2026-05-03 21:59 -28.39097 -50.11120 34242 ft 398 kts 218°
2026-05-03 21:59 -28.43766 -50.14503 34242 ft 398 kts 219°
2026-05-03 22:00 -28.48399 -50.17856 34232 ft 397 kts 218°
2026-05-03 22:00 -28.53073 -50.21232 34251 ft 398 kts 218°
2026-05-03 22:01 -28.57741 -50.24617 34248 ft 398 kts 218°
2026-05-03 22:01 -28.62412 -50.28010 34227 ft 398 kts 218°
2026-05-03 22:02 -28.67053 -50.31381 34231 ft 398 kts 218°
2026-05-03 22:02 -28.71719 -50.34776 34224 ft 398 kts 218°
2026-05-03 22:03 -28.76264 -50.38348 34235 ft 396 kts 222°
2026-05-03 22:03 -28.80634 -50.42162 34253 ft 395 kts 223°
2026-05-03 22:04 -28.84994 -50.45985 34247 ft 396 kts 222°
2026-05-03 22:04 -28.89366 -50.49743 34244 ft 397 kts 222°
2026-05-03 22:05 -28.93791 -50.53517 34240 ft 396 kts 222°
2026-05-03 22:05 -28.98208 -50.57282 34238 ft 396 kts 222°
2026-05-03 22:06 -29.02611 -50.61055 34230 ft 395 kts 222°
2026-05-03 22:06 -29.07007 -50.64841 34229 ft 396 kts 222°
2026-05-03 22:07 -29.11372 -50.68608 34232 ft 395 kts 224°
2026-05-03 22:07 -29.15065 -50.73144 34245 ft 389 kts 234°
2026-05-03 22:08 -29.18478 -50.77961 34233 ft 390 kts 234°
2026-05-03 22:08 -29.21905 -50.82791 34239 ft 391 kts 234°
2026-05-03 22:09 -29.25331 -50.87627 34219 ft 390 kts 234°
2026-05-03 22:10 -29.30464 -50.94869 34233 ft 390 kts 234°
2026-05-03 22:10 -29.33859 -50.99664 34224 ft 390 kts 234°
2026-05-03 22:11 -29.37262 -51.04489 34224 ft 389 kts 234°
2026-05-03 22:11 -29.40661 -51.09317 34217 ft 389 kts 234°
2026-05-03 22:12 -29.44060 -51.14147 34214 ft 389 kts 234°
2026-05-03 22:12 -29.47434 -51.18940 34201 ft 389 kts 234°
2026-05-03 22:13 -29.50833 -51.23775 34199 ft 389 kts 234°
2026-05-03 22:13 -29.54228 -51.28613 34199 ft 389 kts 234°
2026-05-03 22:14 -29.57616 -51.33451 34220 ft 389 kts 234°
2026-05-03 22:14 -29.61010 -51.38295 34208 ft 389 kts 234°
2026-05-03 22:15 -29.64375 -51.43116 34204 ft 389 kts 234°
2026-05-03 22:15 -29.67708 -51.47997 34202 ft 387 kts 239°
2026-05-03 22:16 -29.70540 -51.53258 34204 ft 387 kts 241°
2026-05-03 22:16 -29.73361 -51.58526 34210 ft 388 kts 240°
2026-05-03 22:17 -29.76191 -51.63813 34212 ft 388 kts 241°
2026-05-03 22:17 -29.78991 -51.69067 34211 ft 387 kts 241°
2026-05-03 22:18 -29.81828 -51.74392 34212 ft 388 kts 241°
2026-05-03 22:18 -29.84636 -51.79654 34216 ft 388 kts 240°
2026-05-03 22:19 -29.87463 -51.84954 34222 ft 389 kts 241°
2026-05-03 22:19 -29.90287 -51.90260 34226 ft 388 kts 241°
2026-05-03 22:20 -29.93103 -51.95571 34218 ft 388 kts 241°
2026-05-03 22:20 -29.95438 -51.99986 34218 ft 388 kts 241°
2026-05-03 22:21 -29.98244 -52.05299 34227 ft 387 kts 241°
2026-05-03 22:21 -30.01498 -52.11458 34223 ft 386 kts 241°
2026-05-03 22:22 -30.03818 -52.15850 34226 ft 385 kts 241°
2026-05-03 22:22 -30.06610 -52.21134 34219 ft 386 kts 241°
2026-05-03 22:23 -30.09403 -52.26445 34218 ft 387 kts 241°
2026-05-03 22:23 -30.12189 -52.31757 34220 ft 387 kts 241°
2026-05-03 22:24 -30.14973 -52.37064 34225 ft 386 kts 241°
2026-05-03 22:24 -30.17748 -52.42365 34230 ft 385 kts 241°
2026-05-03 22:25 -30.20622 -52.47567 34216 ft 386 kts 239°
2026-05-03 22:25 -30.23667 -52.52690 34221 ft 386 kts 238°
2026-05-03 22:26 -30.26709 -52.57811 34214 ft 386 kts 238°
2026-05-03 22:26 -30.29712 -52.62962 34206 ft 386 kts 239°
2026-05-03 22:27 -30.32701 -52.68135 34206 ft 387 kts 239°
2026-05-03 22:27 -30.35674 -52.73272 34209 ft 387 kts 239°
2026-05-03 22:28 -30.38666 -52.78447 34213 ft 387 kts 239°
2026-05-03 22:28 -30.41663 -52.83626 34212 ft 387 kts 239°
2026-05-03 22:29 -30.44657 -52.88801 34204 ft 387 kts 239°
2026-05-03 22:29 -30.47636 -52.93998 34203 ft 387 kts 239°
2026-05-03 22:30 -30.50624 -52.99188 34206 ft 387 kts 239°
2026-05-03 22:30 -30.53594 -53.04340 34206 ft 387 kts 239°
2026-05-03 22:31 -30.56581 -53.09535 34201 ft 387 kts 239°
2026-05-03 22:31 -30.59560 -53.14735 34202 ft 387 kts 239°
2026-05-03 22:32 -30.62539 -53.19935 34202 ft 387 kts 239°
2026-05-03 22:32 -30.65521 -53.25138 34202 ft 388 kts 239°
2026-05-03 22:33 -30.68493 -53.30327 34210 ft 388 kts 239°
2026-05-03 22:33 -30.71475 -53.35561 34206 ft 388 kts 239°
2026-05-03 22:34 -30.74457 -53.40793 34207 ft 388 kts 239°
2026-05-03 22:34 -30.77445 -53.46011 34205 ft 388 kts 239°
2026-05-03 22:35 -30.80431 -53.51233 34201 ft 388 kts 239°
2026-05-03 22:35 -30.83402 -53.56416 34203 ft 388 kts 239°
2026-05-03 22:36 -30.86396 -53.61656 34209 ft 389 kts 239°
2026-05-03 22:36 -30.89383 -53.66895 34207 ft 388 kts 239°
2026-05-03 22:37 -30.92361 -53.72138 34204 ft 388 kts 239°
2026-05-03 22:37 -30.95331 -53.77377 34177 ft 386 kts 245°
2026-05-03 22:38 -30.98288 -53.82593 34206 ft 385 kts 245°
2026-05-03 22:38 -31.01216 -53.87765 34212 ft 385 kts 245°
2026-05-03 22:39 -31.04163 -53.92965 34209 ft 384 kts 245°
2026-05-03 22:39 -31.07106 -53.98154 34208 ft 383 kts 245°
2026-05-03 22:40 -31.10035 -54.03339 34213 ft 382 kts 245°
2026-05-03 22:40 -31.12946 -54.08516 34209 ft 382 kts 245°
2026-05-03 22:41 -31.15867 -54.13701 34208 ft 382 kts 245°
2026-05-03 22:41 -31.18763 -54.18854 34198 ft 382 kts 245°
2026-05-03 22:42 -31.21696 -54.24073 34213 ft 381 kts 245°
2026-05-03 22:42 -31.24596 -54.29245 34217 ft 380 kts 245°
2026-05-03 22:43 -31.27486 -54.34405 34211 ft 379 kts 245°
2026-05-03 22:43 -31.30362 -54.39555 34209 ft 378 kts 245°
2026-05-03 22:44 -31.33216 -54.44663 34199 ft 377 kts 245°
2026-05-03 22:44 -31.36079 -54.49800 34195 ft 377 kts 245°
2026-05-03 22:45 -31.38945 -54.54951 34192 ft 378 kts 244°
2026-05-03 22:45 -31.41804 -54.60098 34185 ft 377 kts 244°
2026-05-03 22:46 -31.44872 -54.65112 34181 ft 386 kts 235°
2026-05-03 22:46 -31.48819 -54.69420 34180 ft 391 kts 232°
2026-05-03 22:47 -31.52839 -54.73729 34178 ft 392 kts 232°
2026-05-03 22:47 -31.56859 -54.78051 34171 ft 392 kts 231°
2026-05-03 22:48 -31.60873 -54.82379 34174 ft 392 kts 231°
2026-05-03 22:48 -31.64883 -54.86714 34201 ft 392 kts 231°
2026-05-03 22:49 -31.68884 -54.91052 34192 ft 392 kts 231°
2026-05-03 22:49 -31.72871 -54.95373 34190 ft 392 kts 231°
2026-05-03 22:50 -31.76884 -54.99712 34191 ft 392 kts 231°
2026-05-03 22:50 -31.80902 -55.04061 34185 ft 393 kts 230°
2026-05-03 22:51 -31.84906 -55.08419 34183 ft 392 kts 231°
2026-05-03 22:51 -31.88904 -55.12775 34182 ft 392 kts 231°
2026-05-03 22:52 -31.92895 -55.17131 34177 ft 391 kts 231°
2026-05-03 22:52 -31.96893 -55.21493 34177 ft 392 kts 231°
2026-05-03 22:53 -32.00850 -55.25813 34195 ft 388 kts 230°
2026-05-03 22:53 -32.04794 -55.30114 34193 ft 386 kts 230°
2026-05-03 22:54 -32.08725 -55.34412 34186 ft 385 kts 230°
2026-05-03 22:54 -32.12629 -55.38702 34182 ft 384 kts 230°
2026-05-03 22:55 -32.16535 -55.42996 34175 ft 384 kts 230°
2026-05-03 22:55 -32.20449 -55.47297 34175 ft 385 kts 230°
2026-05-03 22:56 -32.24364 -55.51605 34179 ft 384 kts 230°
2026-05-03 22:56 -32.28282 -55.55911 34176 ft 385 kts 230°
2026-05-03 22:57 -32.32195 -55.60231 34199 ft 385 kts 230°
2026-05-03 22:57 -32.36072 -55.64516 34191 ft 383 kts 230°
2026-05-03 22:58 -32.39957 -55.68815 34185 ft 382 kts 230°
2026-05-03 22:58 -32.43832 -55.73109 34180 ft 381 kts 230°
2026-05-03 22:59 -32.47698 -55.77398 34180 ft 381 kts 230°
2026-05-03 22:59 -32.51570 -55.81695 34180 ft 381 kts 230°
2026-05-03 23:00 -32.55406 -55.85953 34175 ft 380 kts 230°
2026-05-03 23:00 -32.59267 -55.90245 34174 ft 380 kts 230°
2026-05-03 23:01 -32.63115 -55.94540 34173 ft 379 kts 230°
2026-05-03 23:01 -32.66951 -55.98823 34172 ft 378 kts 230°
2026-05-03 23:02 -32.70760 -56.03068 34169 ft 375 kts 230°
2026-05-03 23:02 -32.74563 -56.07300 34168 ft 374 kts 230°
2026-05-03 23:03 -32.78335 -56.11520 34157 ft 375 kts 230°
2026-05-03 23:03 -32.82105 -56.15778 34152 ft 374 kts 230°
2026-05-03 23:04 -32.85879 -56.20037 34153 ft 374 kts 230°
2026-05-03 23:04 -32.89666 -56.24296 34152 ft 374 kts 230°
2026-05-03 23:05 -32.93445 -56.28563 34154 ft 375 kts 230°
2026-05-03 23:05 -32.97227 -56.32842 34153 ft 375 kts 229°
2026-05-03 23:06 -33.01004 -56.37106 34196 ft 374 kts 229°
2026-05-03 23:06 -33.04748 -56.41336 34190 ft 373 kts 229°
2026-05-03 23:07 -33.08496 -56.45578 34180 ft 371 kts 229°
2026-05-03 23:07 -33.12225 -56.49818 34175 ft 370 kts 229°
2026-05-03 23:08 -33.15941 -56.54044 34166 ft 369 kts 229°
2026-05-03 23:08 -33.19655 -56.58272 34157 ft 369 kts 229°
2026-05-03 23:09 -33.23364 -56.62499 34153 ft 368 kts 229°
2026-05-03 23:09 -33.27068 -56.66721 34152 ft 368 kts 229°
2026-05-03 23:10 -33.30749 -56.70921 34069 ft 369 kts 229°
2026-05-03 23:10 -33.32597 -56.73036 33794 ft 366 kts 229°
2026-05-03 23:10 -33.34433 -56.75139 33548 ft 364 kts 229°
2026-05-03 23:10 -33.36248 -56.77222 33274 ft 361 kts 229°
2026-05-03 23:11 -33.38055 -56.79294 33023 ft 358 kts 229°
2026-05-03 23:11 -33.39854 -56.81358 32761 ft 358 kts 229°
2026-05-03 23:11 -33.41647 -56.83412 32494 ft 356 kts 229°
2026-05-03 23:11 -33.43430 -56.85453 32240 ft 354 kts 229°
2026-05-03 23:12 -33.45204 -56.87484 31985 ft 352 kts 229°
2026-05-03 23:12 -33.46971 -56.89513 31732 ft 351 kts 229°
2026-05-03 23:12 -33.48727 -56.91534 31474 ft 350 kts 229°
2026-05-03 23:12 -33.50477 -56.93548 31236 ft 348 kts 229°
2026-05-03 23:13 -33.52200 -56.95530 30978 ft 347 kts 230°
2026-05-03 23:13 -33.53937 -56.97531 30742 ft 346 kts 230°
2026-05-03 23:13 -33.55672 -56.99529 30503 ft 345 kts 230°
2026-05-03 23:13 -33.57387 -57.01503 30239 ft 339 kts 230°
2026-05-03 23:14 -33.59074 -57.03446 29827 ft 334 kts 230°
2026-05-03 23:14 -33.60733 -57.05362 29444 ft 329 kts 230°
2026-05-03 23:14 -33.62366 -57.07248 29071 ft 324 kts 230°
2026-05-03 23:14 -33.63977 -57.09109 28719 ft 319 kts 230°
2026-05-03 23:15 -33.65562 -57.10947 28366 ft 315 kts 230°
2026-05-03 23:15 -33.67124 -57.12761 28029 ft 310 kts 230°
2026-05-03 23:15 -33.68664 -57.14546 27715 ft 306 kts 230°
2026-05-03 23:15 -33.70187 -57.16306 27378 ft 302 kts 230°
2026-05-03 23:16 -33.71688 -57.18039 27056 ft 297 kts 230°
2026-05-03 23:16 -33.73167 -57.19748 26751 ft 293 kts 230°
2026-05-03 23:16 -33.74626 -57.21439 26439 ft 291 kts 230°
2026-05-03 23:16 -33.76058 -57.23103 26131 ft 290 kts 230°
2026-05-03 23:17 -33.77504 -57.24781 25832 ft 288 kts 230°
2026-05-03 23:17 -33.78945 -57.26452 25528 ft 287 kts 230°
2026-05-03 23:17 -33.80376 -57.28113 25217 ft 285 kts 230°
2026-05-03 23:17 -33.81798 -57.29763 24907 ft 283 kts 231°
2026-05-03 23:18 -33.83216 -57.31411 24586 ft 282 kts 230°
2026-05-03 23:18 -33.84624 -57.33053 24269 ft 281 kts 230°
2026-05-03 23:18 -33.86020 -57.34685 23947 ft 279 kts 230°
2026-05-03 23:18 -33.87412 -57.36312 23619 ft 278 kts 231°
2026-05-03 23:19 -33.88795 -57.37928 23251 ft 277 kts 230°
2026-05-03 23:19 -33.90177 -57.39540 22903 ft 276 kts 230°
2026-05-03 23:19 -33.91537 -57.41126 22566 ft 275 kts 230°
2026-05-03 23:19 -33.92911 -57.42726 22239 ft 274 kts 230°
2026-05-03 23:20 -33.94276 -57.44316 21908 ft 273 kts 230°
2026-05-03 23:20 -33.95639 -57.45906 21577 ft 272 kts 229°
2026-05-03 23:20 -33.96997 -57.47493 21245 ft 271 kts 229°
2026-05-03 23:20 -33.98344 -57.49070 20904 ft 270 kts 229°
2026-05-03 23:21 -33.99688 -57.50643 20569 ft 269 kts 229°
2026-05-03 23:21 -34.01028 -57.52209 20235 ft 269 kts 229°
2026-05-03 23:21 -34.02361 -57.53775 19923 ft 267 kts 229°
2026-05-03 23:21 -34.03688 -57.55333 19580 ft 266 kts 228°
2026-05-03 23:22 -34.06328 -57.58429 18912 ft 264 kts 228°
2026-05-03 23:22 -34.07644 -57.59971 18572 ft 263 kts 228°
2026-05-03 23:22 -34.08954 -57.61514 18218 ft 263 kts 227°
2026-05-03 23:23 -34.10258 -57.63050 17858 ft 262 kts 227°
2026-05-03 23:23 -34.11560 -57.64573 17533 ft 260 kts 227°
2026-05-03 23:23 -34.12854 -57.66087 17199 ft 258 kts 227°
2026-05-03 23:23 -34.14139 -57.67595 16872 ft 257 kts 227°
2026-05-03 23:24 -34.15420 -57.69102 16552 ft 257 kts 227°
2026-05-03 23:24 -34.16694 -57.70600 16229 ft 256 kts 227°
2026-05-03 23:24 -34.17949 -57.72077 15910 ft 255 kts 227°
2026-05-03 23:24 -34.19215 -57.73569 15596 ft 254 kts 226°
2026-05-03 23:25 -34.20479 -57.75053 15269 ft 253 kts 226°
2026-05-03 23:25 -34.21738 -57.76533 14948 ft 252 kts 226°
2026-05-03 23:25 -34.22995 -57.78014 14628 ft 252 kts 226°
2026-05-03 23:25 -34.24252 -57.79501 14303 ft 252 kts 226°
2026-05-03 23:26 -34.25502 -57.80984 13994 ft 252 kts 226°
2026-05-03 23:26 -34.26750 -57.82463 13644 ft 251 kts 226°
2026-05-03 23:26 -34.27990 -57.83927 13315 ft 249 kts 226°
2026-05-03 23:26 -34.29231 -57.85387 12987 ft 249 kts 225°
2026-05-03 23:27 -34.30470 -57.86849 12678 ft 248 kts 225°
2026-05-03 23:27 -34.31701 -57.88307 12367 ft 248 kts 225°
2026-05-03 23:27 -34.32919 -57.89748 12056 ft 249 kts 225°
2026-05-03 23:27 -34.34157 -57.91213 11741 ft 248 kts 225°
2026-05-03 23:28 -34.35386 -57.92668 11429 ft 247 kts 225°
2026-05-03 23:28 -34.36618 -57.94132 11114 ft 248 kts 225°
2026-05-03 23:28 -34.37846 -57.95593 10792 ft 248 kts 225°
2026-05-03 23:28 -34.39075 -57.97057 10479 ft 248 kts 225°
2026-05-03 23:29 -34.40306 -57.98518 10198 ft 247 kts 225°
2026-05-03 23:29 -34.41559 -57.99992 10118 ft 258 kts 223°
2026-05-03 23:29 -34.42969 -58.01380 9768 ft 265 kts 219°
2026-05-03 23:29 -34.44411 -58.02781 9385 ft 264 kts 219°
2026-05-03 23:30 -34.45845 -58.04183 8871 ft 264 kts 220°
2026-05-03 23:30 -34.47261 -58.05568 8304 ft 260 kts 219°
2026-05-03 23:30 -34.48661 -58.06943 7843 ft 264 kts 219°
2026-05-03 23:30 -34.50085 -58.08335 7430 ft 265 kts 220°
2026-05-03 23:31 -34.51512 -58.09727 7153 ft 262 kts 219°
2026-05-03 23:31 -34.52929 -58.11112 6722 ft 259 kts 219°
2026-05-03 23:31 -34.54326 -58.12480 6082 ft 258 kts 220°
2026-05-03 23:31 -34.55712 -58.13841 5641 ft 250 kts 219°
2026-05-03 23:32 -34.57011 -58.15118 5485 ft 232 kts 220°
2026-05-03 23:32 -34.58248 -58.16331 5149 ft 226 kts 220°
2026-05-03 23:32 -34.59456 -58.17515 5018 ft 220 kts 220°
2026-05-03 23:32 -34.60660 -58.18698 4575 ft 229 kts 220°
2026-05-03 23:33 -34.61925 -58.19939 4098 ft 236 kts 220°
2026-05-03 23:33 -34.63191 -58.21188 3891 ft 232 kts 220°
2026-05-03 23:33 -34.64392 -58.22449 3705 ft 223 kts 231°
2026-05-03 23:33 -34.64986 -58.24098 3587 ft 210 kts 265°
2026-05-03 23:34 -34.64709 -58.25773 3267 ft 201 kts 298°
2026-05-03 23:34 -34.63957 -58.27114 2974 ft 187 kts 303°
2026-05-03 23:34 -34.63260 -58.28352 2686 ft 168 kts 304°
2026-05-03 23:34 -34.62627 -58.29490 2430 ft 151 kts 305°
2026-05-03 23:35 -34.62083 -58.30469 2214 ft 136 kts 305°
2026-05-03 23:35 -34.61561 -58.31411 2007 ft 133 kts 306°
2026-05-03 23:35 -34.61052 -58.32330 1803 ft 130 kts 306°
2026-05-03 23:35 -34.60541 -58.33249 1614 ft 132 kts 305°
2026-05-03 23:36 -34.60026 -58.34174 1408 ft 132 kts 305°
2026-05-03 23:36 -34.59517 -58.35090 1235 ft 130 kts 305°
2026-05-03 23:36 -34.59180 -58.35698 1094 ft 131 kts 305°
2026-05-03 23:36 -34.58689 -58.36619 876 ft 129 kts 304°
2026-05-03 23:37 -34.58191 -58.37534 685 ft 131 kts 307°
2026-05-03 23:37 -34.57675 -58.38450 518 ft 132 kts 309°
2026-05-03 23:37 -34.57154 -58.39371 330 ft 132 kts 308°
2026-05-03 23:37 -34.56644 -58.40291 161 ft 130 kts 305°
2026-05-03 23:38 -34.56143 -58.41190 30 ft 122 kts 308°
2026-05-03 23:38 -34.55783 -58.41835 25 ft 57 kts 303°
2026-05-03 23:38 -34.55604 -58.42148 27 ft 37 kts 305°
2026-05-03 23:38 -34.55464 -58.42395 27 ft 35 kts 304°
2026-05-03 23:39 -34.55401 -58.42496 29 ft 11 kts 340°
2026-05-03 23:39 -34.55365 -58.42448 25 ft 2 kts 115°
2026-05-03 23:39 -34.55370 -58.42416 29 ft 5 kts 96°
2026-05-03 23:39 -34.55379 -58.42361 27 ft 8 kts 111°
2026-05-03 23:40 -34.55415 -58.42297 27 ft 10 kts 127°
2026-05-03 23:40 -34.55465 -58.42221 29 ft 13 kts 128°
2026-05-03 23:40 -34.55525 -58.42126 29 ft 15 kts 127°
2026-05-03 23:40 -34.55594 -58.42012 28 ft 18 kts 125°
2026-05-03 23:41 -34.55670 -58.41876 29 ft 21 kts 123°
2026-05-03 23:41 -34.55746 -58.41722 25 ft 21 kts 111°
2026-05-03 23:41 -34.55783 -58.41624 29 ft 7 kts 115°
2026-05-03 23:41 -34.55789 -58.41609 29 ft 3 kts 117°
2026-05-03 23:42 -34.55819 -58.41550 25 ft 13 kts 122°
2026-05-03 23:42 -34.55869 -58.41436 30 ft 16 kts 116°
2026-05-03 23:42 -34.55908 -58.41340 28 ft 9 kts 110°
2026-05-03 23:42 -34.55880 -58.41297 31 ft 7 kts 20°
2026-05-03 23:43 -34.55828 -58.41298 28 ft 8 kts 323°
2026-05-03 23:43 -34.55797 -58.41361 27 ft 10 kts 304°
2026-05-03 23:43 -34.55754 -58.41433 25 ft 11 kts 304°
2026-05-03 23:43 -34.55736 -58.41472 25 ft 4 kts 298°
2026-05-03 23:44 -34.55721 -58.41500 25 ft 2 kts 329°
2026-05-03 23:44 -34.55705 -58.41494 30 ft 1 kts 27°
2026-05-03 23:44 -34.55691 -58.41490 28 ft 3 kts 15°
2026-05-03 23:44 -34.55680 -58.41486 25 ft 0 kts 14°